Location: Graswijk
(52.9667°N, 6.5500°E)
Time: 20:09:58
(UTC+00:00)

Cosmos 2237 Rocket - Pass Details

Date: 15 May 2026
Orbit: 833 x 849 km, 71.0° (Epoch: 8 June)

Event Time Altitude Azimuth Distance (km) Brightness Sun altitude
Rises 22:35:09 0° 328° (NNW) 3,422 6.8 -17.0°
Reaches altitude 10° 22:37:38 10° 332° (NNW) 2,482 5.8 -17.1°
Maximum altitude 22:43:19 67° 55° (NE) 919 2.4 -17.3°
Enters shadow 22:47:02 22° 133° (SE) 1,767 3.4 -17.4°
